Fredericksburg, TX

11:28 PM CDT on May 28, 2017 (GMT -0500)
Fredericksburg

Weather History for KT82 - May, 2014

Change the Weather History Date:

Sunday, May 18, 2014

  Actual Average (KSAT) Record (KSAT)
Temperature  
Mean Temperature 72 °F -  
Max Temperature 82 °F 86 °F 97 °F (1981)
Min Temperature 61 °F 65 °F 52 °F (1945)
Cooling Degree Days 6    
Growing Degree Days 22 (Base 50)    
Moisture  
Dew Point 57 °F    
Average Humidity 62    
Maximum Humidity 87    
Minimum Humidity 39    
Precipitation  
Precipitation 0.00 in - - ()
Sea Level Pressure  
Sea Level Pressure 30.04 in    
Wind  
Wind Speed 11 mph (South)    
Max Wind Speed 20 mph    
Max Gust Speed 25 mph    
Visibility 10 miles    
Events      
Averages and records for this station are not official NWS values.
T = Trace of Precipitation, MM = Missing Value Source: NWS Daily Summary

Daily Weather History Graph

Daily Weather History Graph

Search for Another Location

Airport or City:

Trip Planner

Search our weather history database for the weather conditions in past years. The results will help you decide how hot, cold, wet, or windy it might be!

Date:

Astronomy

May. 18, 2014 Rise Set
Actual Time 6:40 AM CDT 8:24 PM CDT
Civil Twilight 6:13 AM CDT 8:51 PM CDT
Nautical Twilight 5:41 AM CDT 9:22 PM CDT
Astronomical Twilight 5:08 AM CDT 9:56 PM CDT
Moon No Moon Rise 10:27 AM CDT (5/18)
Length of Visible Light 14h 37m
Length of Day
13h 44m
Waning Gibbous, 81% of the Moon is Illuminated
May 18
Waning Gibbous
May 21
Last Quarter
May 28
New
Jun 5
First Quarter
Jun 12
Full

Hourly Weather History & Observations

Time (CDT) Temp. Heat Index Dew Point Humidity Pressure Visibility Wind Dir Wind Speed Gust Speed Precip Events Conditions
12:15 AM 66.7 °F - 56.7 °F 70% 30.03 in 10.0 mi SSE 8.1 mph - N/A   Unknown
12:35 AM 66.2 °F - 57.2 °F 73% 30.02 in 10.0 mi SSE 8.1 mph - N/A   Unknown
12:55 AM 65.1 °F - 57.2 °F 75% 30.03 in 10.0 mi South 10.4 mph - N/A   Unknown
1:15 AM 64.6 °F - 57.4 °F 77% 30.03 in 10.0 mi South 9.2 mph - N/A   Unknown
1:35 AM 64.0 °F - 57.6 °F 79% 30.03 in 10.0 mi South 6.9 mph - N/A   Unknown
1:55 AM 63.5 °F - 57.6 °F 81% 30.04 in 10.0 mi South 6.9 mph - N/A   Unknown
2:15 AM 63.0 °F - 57.6 °F 82% 30.04 in 10.0 mi South 5.8 mph - N/A   Unknown
2:35 AM 62.6 °F - 57.6 °F 84% 30.04 in 10.0 mi SSE 4.6 mph - N/A   Unknown
2:55 AM 62.1 °F - 57.4 °F 85% 30.04 in 10.0 mi SSE 5.8 mph - N/A   Unknown
3:15 AM 61.7 °F - 57.4 °F 86% 30.04 in 10.0 mi SSE 5.8 mph - N/A   Unknown
3:35 AM 61.7 °F - 57.6 °F 86% 30.04 in 10.0 mi SSE 5.8 mph - N/A   Unknown
3:55 AM 61.9 °F - 58.1 °F 87% 30.04 in 10.0 mi SSE 9.2 mph - N/A   Unknown
4:15 AM 62.2 °F - 58.3 °F 87% 30.04 in 10.0 mi South 8.1 mph - N/A   Unknown
4:35 AM 62.6 °F - 58.1 °F 85% 30.03 in 10.0 mi South 11.5 mph - N/A   Unknown
4:55 AM 62.8 °F - 58.3 °F 85% 30.04 in 10.0 mi South 9.2 mph - N/A   Unknown
5:35 AM 63.0 °F - 57.7 °F 83% 30.04 in 10.0 mi South 10.4 mph - N/A   Unknown
5:55 AM 63.1 °F - 57.7 °F 83% 30.04 in 10.0 mi South 8.1 mph - N/A   Unknown
6:15 AM 63.1 °F - 57.2 °F 81% 30.04 in 10.0 mi South 13.8 mph - N/A   Unknown
6:35 AM 63.1 °F - 56.8 °F 80% 30.05 in 10.0 mi South 10.4 mph - N/A   Unknown
6:55 AM 63.3 °F - 56.7 °F 79% 30.06 in 10.0 mi South 12.7 mph 18.4 mph N/A   Unknown
7:15 AM 63.7 °F - 56.3 °F 77% 30.06 in 10.0 mi South 15.0 mph 20.7 mph N/A   Unknown
7:35 AM 64.0 °F - 56.7 °F 77% 30.06 in 10.0 mi South 16.1 mph 20.7 mph N/A   Unknown
7:55 AM 64.6 °F - 57.0 °F 76% 30.07 in 10.0 mi South 11.5 mph 17.3 mph N/A   Unknown
8:15 AM 65.3 °F - 57.2 °F 75% 30.07 in 10.0 mi South 12.7 mph 17.3 mph N/A   Unknown
8:35 AM 65.5 °F - 57.6 °F 76% 30.07 in 10.0 mi South 15.0 mph 18.4 mph N/A   Unknown
8:55 AM 66.2 °F - 57.2 °F 73% 30.07 in 10.0 mi South 19.6 mph 23.0 mph N/A   Unknown
9:15 AM 66.9 °F - 56.8 °F 70% 30.08 in 10.0 mi South 18.4 mph 24.2 mph N/A   Unknown
9:35 AM 69.3 °F - 57.0 °F 65% 30.08 in 10.0 mi South 15.0 mph 23.0 mph N/A   Unknown
9:55 AM 69.3 °F - 57.0 °F 65% 30.08 in 10.0 mi SSE 15.0 mph 24.2 mph N/A   Unknown
10:15 AM 69.3 °F - 57.4 °F 66% 30.08 in 10.0 mi South 15.0 mph 25.3 mph N/A   Unknown
10:35 AM 69.6 °F - 57.4 °F 65% 30.08 in 10.0 mi South 15.0 mph 24.2 mph N/A   Unknown
10:55 AM 70.0 °F - 57.2 °F 64% 30.09 in 10.0 mi South 17.3 mph 21.9 mph N/A   Unknown
11:15 AM 70.9 °F - 57.4 °F 62% 30.09 in 10.0 mi South 15.0 mph 21.9 mph N/A   Unknown
11:35 AM 72.0 °F - 57.9 °F 61% 30.09 in 10.0 mi South 12.7 mph 17.3 mph N/A   Unknown
11:55 AM 74.1 °F - 58.1 °F 57% 30.08 in 10.0 mi South 15.0 mph - N/A   Unknown
12:15 PM 74.8 °F - 58.5 °F 57% 30.08 in 10.0 mi SSW 13.8 mph 20.7 mph N/A   Unknown
12:35 PM 75.2 °F - 57.9 °F 55% 30.08 in 10.0 mi South 15.0 mph 20.7 mph N/A   Unknown
12:55 PM 76.1 °F - 58.1 °F 54% 30.07 in 10.0 mi South 11.5 mph 17.3 mph N/A   Unknown
1:15 PM 77.4 °F - 58.1 °F 51% 30.06 in 10.0 mi South 12.7 mph 19.6 mph N/A   Unknown
1:35 PM 77.5 °F - 57.6 °F 50% 30.06 in 10.0 mi South 11.5 mph 17.3 mph N/A   Unknown
1:55 PM 78.6 °F - 57.6 °F 48% 30.05 in 10.0 mi SSE 10.4 mph 18.4 mph N/A   Unknown
2:15 PM 79.9 °F - 57.0 °F 45% 30.04 in 10.0 mi SSE 9.2 mph 19.6 mph N/A   Unknown
2:35 PM 80.2 °F 80.4 °F 56.5 °F 44% 30.04 in 10.0 mi SSE 12.7 mph 18.4 mph N/A   Unknown
2:55 PM 81.0 °F 81.0 °F 57.4 °F 44% 30.03 in 10.0 mi SSE 10.4 mph 18.4 mph N/A   Unknown
3:15 PM 81.3 °F 81.1 °F 55.9 °F 42% 30.02 in 10.0 mi South 16.1 mph 21.9 mph N/A   Unknown
3:35 PM 81.5 °F 81.3 °F 56.5 °F 42% 30.02 in 10.0 mi SSE 13.8 mph 21.9 mph N/A   Unknown
3:55 PM 82.2 °F 81.6 °F 55.6 °F 40% 30.01 in 10.0 mi South 18.4 mph 21.9 mph N/A   Unknown
4:15 PM 81.7 °F 81.3 °F 55.6 °F 41% 30.01 in 10.0 mi SSE 13.8 mph 17.3 mph N/A   Unknown
4:35 PM 81.5 °F 81.0 °F 54.7 °F 40% 30.00 in 10.0 mi SSE 11.5 mph 24.2 mph N/A   Unknown
4:55 PM 82.0 °F 81.4 °F 55.0 °F 39% 30.00 in 10.0 mi South 18.4 mph 23.0 mph N/A   Unknown
5:15 PM 81.9 °F 81.3 °F 55.2 °F 40% 29.99 in 10.0 mi SSE 10.4 mph 20.7 mph N/A   Unknown
5:35 PM 81.7 °F 81.2 °F 55.0 °F 40% 29.99 in 10.0 mi SSE 11.5 mph 19.6 mph N/A   Unknown
5:55 PM 81.9 °F 81.3 °F 55.2 °F 40% 29.99 in 10.0 mi SSE 11.5 mph - N/A   Unknown
6:15 PM 80.6 °F 80.4 °F 54.5 °F 40% 29.99 in 10.0 mi SSE 11.5 mph 23.0 mph N/A   Unknown
6:35 PM 80.6 °F 80.4 °F 54.5 °F 40% 30.00 in 10.0 mi South 16.1 mph 20.7 mph N/A   Unknown
6:55 PM 79.7 °F - 55.0 °F 43% 29.99 in 10.0 mi South 15.0 mph 21.9 mph N/A   Unknown
7:15 PM 79.2 °F - 54.9 °F 43% 29.99 in 10.0 mi South 13.8 mph 17.3 mph N/A   Unknown
7:35 PM 78.3 °F - 54.3 °F 43% 29.99 in 10.0 mi South 13.8 mph 20.7 mph N/A   Unknown
7:55 PM 77.0 °F - 55.0 °F 47% 30.00 in 10.0 mi SSE 12.7 mph - N/A   Unknown
8:15 PM 76.1 °F - 55.0 °F 48% 30.00 in 10.0 mi SSE 10.4 mph - N/A   Unknown
8:35 PM 75.2 °F - 55.2 °F 50% 30.01 in 10.0 mi SSE 9.2 mph - N/A   Unknown
8:55 PM 74.5 °F - 55.0 °F 51% 30.02 in 10.0 mi SSE 11.5 mph 18.4 mph N/A   Unknown
9:15 PM 73.4 °F - 55.0 °F 52% 30.02 in 10.0 mi SSE 8.1 mph 17.3 mph N/A   Unknown
9:35 PM 72.5 °F - 55.4 °F 55% 30.02 in 10.0 mi SSE 8.1 mph 16.1 mph N/A   Unknown
9:55 PM 72.0 °F - 55.6 °F 56% 30.03 in 10.0 mi SSE 10.4 mph - N/A   Unknown
10:15 PM 70.9 °F - 55.6 °F 58% 30.04 in 10.0 mi SSE 9.2 mph - N/A   Unknown
10:35 PM 69.8 °F - 55.8 °F 61% 30.04 in 10.0 mi SSE 9.2 mph - N/A   Unknown
10:55 PM 69.1 °F - 55.8 °F 62% 30.05 in 10.0 mi South 11.5 mph 18.4 mph N/A   Unknown
11:15 PM 68.5 °F - 55.8 °F 64% 30.05 in 10.0 mi South 10.4 mph 16.1 mph N/A   Unknown
11:35 PM 67.8 °F - 55.9 °F 66% 30.05 in 10.0 mi SSE 8.1 mph - N/A   Unknown
11:55 PM 67.1 °F - 56.1 °F 68% 30.04 in 10.0 mi South 11.5 mph 16.1 mph N/A   Unknown